User: anonymous   Login
Location: Unspecified
(0.0000°N, 0.0000°E)
Time: 09:53:00
(UTC+01:00)
Language:

ARIANE 5 R/B - Orbit

View from above orbital plane
View from above orbital plane
View from above satellite
View from above satellite

Ground track
Ground track

The orbit data is extracted from the following two-line orbital elements,

1 27510U 02040C   15061.22402869 -.00000042  00000-0  52785-3 0  9994
2 27510 004.7535 175.6387 7159008 052.3882 353.0056 02.27183939103859
Epoch (UTC): 02 March 2015 05:22:36
Eccentricity: 0.7159008
inclination: 4.7535°
perigee height: 566 km
apogee height: 35563 km
right ascension of ascending node: 175.6387°
argument of perigee: 52.3882°
revolutions per day: 2.27183939
mean anomaly at epoch: 353.0056°
orbit number at epoch: 10385

The dashed part of the orbit path shows where the satellite is in the earth's shadow,  

DLR